Location: Unspecified
(0.0000°N, 0.0000°E)
Time: 14:04:41
(UTC+00:00)

deb Delta 126 - Pass Details

Date: 23 February 2026
Orbit: 1501 x 1634 km, 102.6° (Epoch: 4 March)

Event Time Altitude Azimuth Distance (km) Brightness Sun altitude
Rises 05:12:16 0° 355° (N) 4,783 ? -15.0°
Reaches altitude 10° 05:15:36 10° 345° (NNW) 3,782 ? -14.2°
Maximum altitude 05:23:00 30° 288° (WNW) 2,495 ? -12.4°
Drops below altitude 10° 05:30:18 10° 230° (SW) 3,709 ? -10.6°
Sets 05:33:35 0° 220° (SW) 4,677 ? -9.8°
